Location: Mascot Post Office (historical)
(40.2645°N, 99.5462°W)
Time: 02:39:16
(UTC+00:00)

SPOT 1/Viking Rocket - Pass Details

Date: 14 July 2020
Orbit: 778 x 793 km, 98.5° (Epoch: 14 August)

Event Time Altitude Azimuth Distance (km) Brightness Sun altitude
Exits shadow 03:26:28 18° 134° (SE) 1,822 4.8 -12.9°
Maximum altitude 03:29:55 44° 71° (ENE) 1,071 4.1 -13.4°
Drops below altitude 10° 03:34:50 10° 360° (N) 2,354 6.7 -14.1°
Sets 03:37:14 0° 354° (N) 3,289 7.7 -14.4°
